Location: Aalen
(48.8330°N, 10.1000°E)
Time: 00:53:38
(UTC+02:00)

Transit 4A - Pass Details

Date: 02 August 2021
Orbit: 870 x 974 km, 66.8° (Epoch: 26 September)

Event Time Altitude Azimuth Distance (km) Brightness Sun altitude
Rises 06:04:23 0° 314° (NW) 3,467 10.7 0.6°
Reaches altitude 10° 06:08:16 10° 339° (NNW) 2,529 10.3 1.2°
Maximum altitude 06:11:13 14° 10° (N) 2,258 10.5 1.6°
Drops below altitude 10° 06:14:11 10° 41° (NE) 2,540 11.6 2.1°
Sets 06:18:06 0° 66° (ENE) 3,493 14.7 2.6°
